FW6635 Weather Reports


time (UTC)temp
F
wind
direction
speed
knots
gust
knots
rain 1hr
in
rain 24hr
in
rain mn
in
humidity
%
barometer
mb
20260506134619 69 0 2.6 6.1 0.00 0.00 0.00 80 1017.9
20260506133051 68 186 1.7 4.3 0.00 0.00 0.00 82 1017.8
20260506131606 66 217 1.7 3.5 0.00 0.00 0.00 83 1017.8
20260506130048 65 181 0.9 3.5 0.00 0.00 0.00 84 1017.9
20260506124545 64 225 0.9 2.6 0.00 0.00 0.00 86 1017.6
20260506123054 63 221 0.9 3.5 0.00 0.00 0.00 86 1017.7
20260506121548 63 256 2.6 6.1 0.00 0.00 0.00 85 1017.6
20260506120054 62 221 1.7 4.3 0.00 0.00 0.00 87 1017.3
20260506114554 61 212 2.6 5.2 0.00 0.00 0.00 88 1017.1
20260506113054 60 196 1.7 7.8 0.00 0.00 0.00 90 1016.7
20260506111608 59 213 1.7 5.2 0.00 0.00 0.00 91 1016.5
20260506110054 59 174 0.9 6.1 0.00 0.00 0.00 92 1016.6
20260506104550 58 0 0.0 2.6 0.00 0.00 0.00 92 1016.4
20260506103050 58 166 0.9 4.3 0.00 0.00 0.00 92 1016.4
20260506101549 58 167 1.7 4.3 0.00 0.00 0.00 93 1016.2
20260506100049 57 0 0.0 1.7 0.00 0.00 0.00 94 1016.4
20260506094547 56 0 0.0 0.0 0.00 0.00 0.00 94 1016.7
20260506093054 56 0 0.0 0.0 0.00 0.00 0.00 94 1016.8
20260506091550 56 0 0.0 0.0 0.00 0.00 0.00 95 1016.8
20260506090048 55 0 0.0 0.0 0.00 0.00 0.00 94 1017.0
20260506084551 55 0 0.0 0.0 0.00 0.00 0.00 94 1017.0
20260506083108 56 0 0.0 0.0 0.00 0.00 0.00 93 1017.0
20260506081552 56 0 0.0 0.0 0.00 0.00 0.00 93 1017.1
20260506073048 58 0 0.0 0.0 0.00 0.00 0.00 89 1016.9
20260506071553 59 0 0.0 0.0 0.00 0.00 0.00 89 1017.0
20260506061549 60 0 0.0 1.7 0.00 0.00 0.00 85 1016.9
20260506044551 62 155 0.0 4.3 0.00 0.00 0.00 81 1017.7
20260506043051 62 132 0.9 3.5 0.00 0.00 0.00 80 1017.7
20260506041602 62 180 0.9 2.6 0.00 0.00 0.00 79 1017.9
20260506040056 63 184 0.9 4.3 0.00 0.00 0.00 79 1017.9
20260506034600 63 182 2.6 6.1 0.00 0.00 0.00 77 1017.8
20260506033052 64 153 1.7 6.1 0.00 0.00 0.00 76 1017.9
20260506031549 64 169 1.7 6.1 0.00 0.00 0.00 75 1017.9
20260506030050 65 168 3.5 8.7 0.00 0.00 0.00 73 1017.9
20260506024601 65 128 1.7 5.2 0.00 0.00 0.00 71 1017.6
20260506023047 66 159 1.7 5.2 0.00 0.00 0.00 70 1017.8
20260506021550 67 180 2.6 8.7 0.00 0.00 0.00 68 1017.8
20260506020107 67 147 2.6 7.8 0.00 0.00 0.00 67 1017.7
20260506014607 68 182 5.2 8.7 0.00 0.00 0.00 67 1017.6
20260506013048 69 150 3.5 9.6 0.00 0.00 0.00 68 1017.3
20260506011613 69 125 3.5 7.8 0.00 0.00 0.00 68 1017.3
20260506010050 70 179 2.6 7.8 0.00 0.00 0.00 67 1016.9
20260506004604 71 168 5.2 10.4 0.00 0.00 0.00 65 1016.5
20260506003050 72 121 3.5 8.7 0.00 0.00 0.00 64 1016.2
20260506001545 73 164 4.3 9.6 0.00 0.00 0.00 63 1016.0
20260506000118 74 145 5.2 10.4 0.00 0.00 0.00 60 1016.2
20260505234554 76 169 2.6 9.6 0.00 0.00 0.00 55 1015.8
20260505233056 77 161 1.7 5.2 0.00 0.00 0.00 47 1015.7
20260505231611 78 197 2.6 7.0 0.00 0.00 0.00 43 1015.9
20260505224550 80 242 4.3 7.8 0.00 0.00 0.00 41 1016.1
20260505223052 81 234 3.5 7.8 0.00 0.00 0.00 41 1015.8
20260505221557 81 176 4.3 8.7 0.00 0.00 0.00 42 1015.8
20260505220053 81 179 3.5 8.7 0.00 0.00 0.00 40 1015.9
20260505214550 81 192 4.3 10.4 0.00 0.00 0.00 42 1015.9
20260505213052 82 190 3.5 8.7 0.00 0.00 0.00 42 1016.0
20260505211550 81 198 2.6 8.7 0.00 0.00 0.00 42 1016.0
20260505210050 81 242 1.7 8.7 0.00 0.00 0.00 43 1016.1
20260505204600 81 212 4.3 11.3 0.00 0.00 0.00 40 1016.2
20260505203059 79 240 3.5 8.7 0.00 0.00 0.00 42 1016.3
20260505201551 81 221 2.6 6.1 0.00 0.00 0.00 43 1016.3
20260505200050 80 176 3.5 8.7 0.00 0.00 0.00 41 1016.6
20260505194604 79 144 2.6 7.8 0.00 0.00 0.00 43 1016.7
20260505193052 81 238 3.5 8.7 0.00 0.00 0.00 43 1016.8
20260505191556 80 228 2.6 10.4 0.00 0.00 0.00 43 1017.2
20260505190046 82 169 1.7 11.3 0.00 0.00 0.00 45 1017.6
20260505184547 80 153 1.7 9.6 0.00 0.00 0.00 47 1017.8
20260505183054 81 197 5.2 10.4 0.00 0.00 0.00 47 1018.3
20260505181555 82 252 4.3 7.8 0.00 0.00 0.00 46 1018.4
20260505180057 80 261 1.7 6.1 0.00 0.00 0.00 47 1018.3
20260505174547 81 265 1.7 12.2 0.00 0.00 0.00 45 1018.2
20260505173059 80 167 4.3 11.3 0.00 0.00 0.00 44 1018.2
20260505171618 79 209 3.5 8.7 0.00 0.00 0.00 47 1018.2
20260505170053 79 173 2.6 8.7 0.00 0.00 0.00 46 1018.3
20260505164546 79 172 4.3 10.4 0.00 0.00 0.00 45 1018.6
20260505163045 78 214 2.6 7.0 0.00 0.00 0.00 51 1018.9
20260505161553 78 208 2.6 7.8 0.00 0.00 0.00 53 1018.8
20260505153051 75 245 2.6 7.0 0.00 0.00 0.00 59 1019.4
20260505151553 75 257 1.7 8.7 0.00 0.00 0.00 61 1019.5
20260505150110 75 208 4.3 8.7 0.00 0.00 0.00 63 1019.5